Location: Baumgartsau
(48.4586°N, 14.0864°E)
Time: 13:27:35
(UTC+00:00)

BREEZE M DEB (TANK) - Pass Details

Date: 10 August 2020
Orbit: 304 x 11869 km, 49.5° (Epoch: 20 September)

Event Time Altitude Azimuth Distance (km) Brightness Sun altitude
Exits shadow 22:31:53 16° 142° (SE) 9,565 8.0 -25.8°
Maximum altitude 22:40:07 18° 128° (SE) 7,911 7.7 -26.0°
Drops below altitude 10° 22:52:02 10° 94° (E) 6,034 7.5 -26.2°
Sets 22:56:59 0° 76° (ENE) 5,848 7.7 -26.3°
